Flag for Burundi Weather past 2 weeks in Gitega, Burundi

Now
63 °F

Passing clouds.


Feels Like: 63 °F
Forecast: 55 / 78 °F
Wind: No wind

Location: Kigali Airport

Current Time: Feb 27, 2015 at 3:19:30 AM

Latest Report: Feb 27, 2015 at 3:00 AM


Visibility: N/A

Pressure: 30.04 "Hg

Humidity: 100%

Dew point: 63 °F

Location of GitegaLocation

Historic Weather in Gitega — Graph

°F

Gitega temperature yesterday

Maximum temperature yesterday: 82 °F (at 2:30 PM)
Minimum temperature yesterday: 61 °F (at 2:30 AM)
Average temperature yesterday: 71 °F

Past Weeks' High & Low Weather Summary

 TemperatureHumidityPressure
High86 °F (Feb 12, 2:00 PM)100% (Feb 12, 2:00 AM)30.74 "Hg (Feb 12, 2:00 AM)
Low59 °F (Feb 21, 4:00 AM)40% (Feb 14, 12:00 PM)29.95 "Hg (Feb 19, 4:00 PM)
Average70 °F81%30.09 "Hg
* Reported Feb 12 2:00 AM — Feb 27 2:30 AM, Gitega, Weather by CustomWeather, © 2015

Note: Actual official high and low records may vary slightly from our data, if they occured in-between our weather recording intervals... More about our weather records

Advertising

Gitega weather history for previous 24 hours

 ConditionsComfort  
Time TempWeatherWind HumidityBarometerVisibility
2:30 AM
Fri, Feb 27
64 °FPassing clouds.No wind94%30.04 "HgN/A
2:00 AM64 °FMild.5 mph94%30.04 "HgN/A
1:30 AM64 °FClear.No wind94%30.04 "Hg10 mi
1:00 AM66 °FClear.No wind88%30.07 "Hg10 mi
12:30 AM66 °FPassing clouds.5 mph88%30.07 "HgN/A
12:00 AM66 °FPassing clouds.3 mph88%30.07 "HgN/A
11:30 PM
Thu, Feb 26
68 °FPassing clouds.5 mph88%30.07 "HgN/A
11:00 PM68 °FPassing clouds.No wind88%30.07 "HgN/A
10:30 PM68 °FPassing clouds.No wind88%30.07 "HgN/A
10:00 PM70 °FPassing clouds.No wind83%30.04 "HgN/A
9:30 PM70 °FPassing clouds.No wind83%30.04 "HgN/A
9:00 PM72 °FPassing clouds.No wind73%30.04 "HgN/A
8:30 PM72 °FPassing clouds.No wind73%30.04 "HgN/A
8:00 PM73 °FPassing clouds.No wind74%30.04 "HgN/A
7:30 PM75 °FPassing clouds.No wind65%30.04 "HgN/A
7:00 PM77 °FPassing clouds.5 mph61%30.04 "HgN/A
6:30 PM77 °FPassing clouds.6 mph65%30.04 "HgN/A
5:00 PM82 °FPartly sunny.5 mph51%30.01 "HgN/A
4:30 PM82 °FPartly sunny.5 mph48%30.01 "HgN/A
3:30 PM82 °FPartly sunny.5 mph51%30.04 "HgN/A
3:00 PM82 °FPartly sunny.5 mph51%30.04 "HgN/A
2:30 PM82 °FScattered clouds.2 mph48%30.04 "HgN/A
2:00 PM81 °FScattered clouds.7 mph58%30.04 "HgN/A
1:30 PM81 °FScattered clouds.5 mph62%30.07 "HgN/A
1:00 PM79 °FScattered clouds.7 mph58%30.07 "HgN/A
12:30 PM79 °FScattered clouds.6 mph58%30.09 "HgN/A
12:00 PM77 °FScattered clouds.6 mph65%30.12 "HgN/A
11:30 AM75 °FScattered clouds.5 mph69%30.15 "HgN/A
10:30 AM72 °FFog.5 mph78%30.15 "Hg3 mi
10:00 AM70 °FFog.5 mph88%30.15 "Hg2 mi
9:30 AM68 °FFog.N/A100%30.12 "Hg2 mi
7:00 AM61 °FFog.3 mph100%30.12 "Hg0 mi
6:00 AM61 °FFog.No wind100%30.09 "Hg0 mi
5:30 AM61 °FFog.No wind100%30.09 "Hg0 mi
4:30 AM61 °FFog.No wind100%30.07 "Hg0 mi
4:00 AM61 °FFog.No wind100%30.04 "Hg0 mi
3:30 AM61 °FFog.No wind100%30.04 "Hg0 mi
3:00 AM61 °FFog.No wind100%30.04 "Hg4 mi
Weather by CustomWeather, © 2015

See weather overviewHow to use our weather pages